Simultaneous Nadir Overpasses (SNOs) Predictions

Prediction of SNOs between GOES-16 and NOAA-20 Satellite Orbit:

Table of predicted SNOs for the next 14.0 days since TLE Epoch: 8/10/2024
Index Date Time (GOES-16) GOES-16 Lat,Lon NOAA-20 Lat,Lon Distance(km) Time Diff (sec)
1 08/10/2024 18:10:03 -0.05, -75.20 0.84, -71.26 450.26 80
2 08/12/2024 06:31:49 0.05, -75.21 0.35, -76.52 149.22 80
3 08/13/2024 06:10:25 0.05, -75.22 -0.70, -72.00 367.63 80
4 08/14/2024 18:32:20 -0.04, -75.22 -0.52, -77.30 236.71 80
5 08/15/2024 18:16:16 -0.04, -75.23 0.54, -72.78 280.31 80
6 08/17/2024 06:38:02 0.03, -75.24 0.64, -78.04 318.86 80
7 08/18/2024 06:19:17 0.02, -75.25 -0.36, -73.51 198.25 80
8 08/19/2024 18:38:33 -0.01, -75.26 -0.77, -78.82 405.35 80
9 08/20/2024 18:22:26 -0.01, -75.27 0.18, -74.28 112.66 80
10 08/22/2024 06:44:13 0.01, -75.30 0.98, -79.55 484.84 80
11 08/23/2024 06:22:47 0.01, -75.31 -0.04, -75.02 33.56 80
